Regional Weather Roundup
Issued by NWS

Home | Current Version | Previous Version | Graphics & Text | Print | Product List | Glossary On
Versions: 1 2 3 4 5 6 7 8 9 10 11 12 13 14 15 16 17 18 19 20 21 22 23 24 25 26 27 28 29 30 31 32 33 34 35 36 37 38 39 40 41 42 43 44 45 46 47 48 49 50
505
ASUS45 KCYS 141510
RWRWY

WYOMING REGIONAL WEATHER ROUNDUP
NATIONAL WEATHER SERVICE CHEYENNE WY
800 AM MST THU DEC 14 2017

NOTE:  "FAIR" INDICATES FEW OR NO CLOUDS BELOW 12,000 FEET
WITH NO SIGNIFICANT WEATHER AND/OR OBSTRUCTIONS TO VISIBILITY.

WYZ001-141600-
YELLOWSTONE NATIONAL PARK

CITY           SKY/WX    TMP DP  RH WIND       PRES   REMARKS
LK YELLOWSTONE   N/A      0  -3  87 CALM      30.37S
W YELLOWSTONE  NOT AVBL

$$
WYZ002>013-054>058-071-098>099-141600-
NORTHERN WYOMING

CITY           SKY/WX    TMP DP  RH WIND       PRES   REMARKS
JACKSON        FAIR       8   5  87 N10       30.39R WCI  -6
CODY           FAIR      20  15  81 S6        30.30S WCI  12
GREYBULL       FAIR      22  18  85 W7        30.30R WCI  13
WORLAND        FAIR      22  18  85 SW3       30.30R
SHERIDAN       CLOUDY    34  22  61 NW17      30.29S WCI  23
BUFFALO        MOCLDY    32  18  56 N23G32    30.23S WCI  19
GILLETTE       CLOUDY    30  22  72 NW21G30   30.22S WCI  17
HULETT         FLURRIES  30  25  80 N14G24    30.21R WCI  20
NEWCASTLE      LGT SNOW  30  23  74 NW24G31   30.17R WCI  16

$$
WYZ014>020-022>026-101>103-141600-
CENTRAL WYOMING

CITY           SKY/WX    TMP DP  RH WIND       PRES   REMARKS
BIG PINEY      FOG        4   2  91 CALM      30.32R VSB 1/4
PINEDALE       FOG       14  12  92 CALM      30.32R VSB<1/4
DUBOIS         FAIR      21  10  63 N9        30.26S WCI  11
LANDER         FAIR      21  19  92 E3        30.29R
RIVERTON       FAIR      19  16  88 NW14      30.30R WCI   6
CASPER         CLOUDY    24  20  84 NW5       30.26R WCI  18
DOUGLAS        CLOUDY    30  20  66 NW23G35   30.23R WCI  17

$$
WYZ021-027>030-104>119-141600-
SOUTHERN WYOMING

CITY           SKY/WX    TMP DP  RH WIND       PRES   REMARKS
EVANSTON       CLOUDY    24  20  84 NW5       30.35R WCI  18
FORT BRIDGER   FAIR      24  24 100 W10       30.36R WCI  13
ROCK SPRINGS   CLOUDY    19  17  92 N7        30.32R WCI  10
DIXON          PTSUNNY   18  15  87 N3        30.32R
RAWLINS        MOCLDY    26  17  68 NW14G28   30.27R WCI  14
SARATOGA       PTSUNNY   21  19  93 W8        30.27R WCI  12
LARAMIE        CLOUDY    23  19  85 NW23      30.17R WCI   7
CHEYENNE       CLOUDY    29  24  82 NW15G23   30.15S WCI  18
TORRINGTON     MOCLDY    33  30  88 N15G24    30.17R WCI  23
PINE BLUFFS    CLOUDY    30  28  93 MISG      30.17R VSB 1/4

$$




USA.gov is the U.S. government's official web portal to all federal, state and local government web resources and services.